{"data":{"norad_id":59490,"intl_designator":"2024-071G","name":"STARLINK-31670","alt_names":[],"object_type":"PAYLOAD","status":"ACTIVE","operator":null,"country":"US","launch_date":"2024-04-13","launch_site_code":"AFETR","launch_vehicle":null,"mission":null,"orbit_class":"UNKNOWN","rcs_meters":null,"size_class":null,"mass_kg":null,"dimensions":null,"purposes":["comms"],"wikipedia_slug":null,"has_3d_model":false,"image_url":null,"decayed_at":null,"tle_current":{"epoch":"2026-09-21T10:54:50.628960Z","epoch_age_seconds":82597,"freshness":"FRESH","line1":"1 59490U 24071G   26264.45475265 -.00000012  00000+0  91036-5 0  9996","line2":"2 59490  43.0025 325.5810 0001357 267.5258  92.5439 15.27577927138015","mean_motion":15.27577927,"eccentricity":0.0001357,"inclination_deg":43.0025,"raan_deg":325.581,"arg_perigee_deg":267.5258,"mean_anomaly_deg":92.5439,"bstar":9.1036e-6,"rev_number":13801,"period_min":94.266876638366,"perigee_km":482.12423955887,"apogee_km":483.98636715,"semimajor_km":6861.1923033544,"source":"CELESTRAK","updated_at":"2026-09-22T09:00:48.956562Z"}}}